Location: Clanezzo
(45.7500°N, 9.6000°E)
Time: 05:52:57
(UTC+00:00)

NOAA 19 - Visible Passes

Search period start: 26 June 2022 00:00
Search period end: 06 July 2022 00:00
Orbit: 840 x 861 km, 99.1° (Epoch: 25 June)

Date Brightness Start Highest point End Pass type
(mag) Time Alt. Az. Time Alt. Az. Time Alt. Az.
26 Jun 8.1 20:21:29 10° WSW 20:22:57 11° W 20:24:26 10° WNW visible
27 Jun 7.8 20:07:59 10° WSW 20:10:53 14° W 20:13:49 10° WNW visible
28 Jun 7.7 19:55:07 10° SW 19:58:51 18° W 20:02:36 10° NW visible
05 Jul 7.9 20:14:08 10° WSW 20:16:35 13° W 20:19:03 10° WNW visible
